Regional Weather Roundup
Issued by NWS

Home | Current Version | Previous Version | Graphics & Text | Print | Product List | Glossary Off
Versions: 1 2 3 4 5 6 7 8 9 10 11 12 13 14 15 16 17 18 19 20 21 22 23 24 25 26 27 28 29 30 31 32 33 34 35 36 37 38 39 40 41 42 43 44 45 46 47 48 49 50

000
ASUS43 KDTX 200701
RWRMI
MICHIGAN HOURLY REGIONAL WEATHER ROUNDUP
NATIONAL WEATHER SERVICE DETROIT/PONTIAC MI
200 AM EST MON FEB 20 2017

NOTE: "FAIR" INDICATES FEW OR NO CLOUDS BELOW 12,000 FEET WITH NO
SIGNIFICANT WEATHER AND/OR OBSTRUCTION TO VISIBILITY.

MIZ047>049-052>055-059>063-066>070-074>076-081>083-200800-
SOUTHEAST LOWER MICHIGAN

CITY           SKY/WX    TMP DP  RH WIND       PRES   REMARKS
ADRIAN         CLOUDY    39  30  70 NE6       30.19R WCI  35
ALMA           CLOUDY    32  30  92 NE3       30.21R
ANN ARBOR      CLOUDY    34  30  85 N3        30.19R
BAD AXE        PTCLDY    27  24  88 CALM      30.22R
CARO           CLOUDY    31  29  91 CALM      30.21R
DETROIT CITY   CLEAR     38  31  76 N3        30.20R
DETROIT        PTCLDY    39  31  72 CALM      30.20R
FLINT          PTCLDY    37  28  70 CALM      30.21R
GROSSE ILE     CLEAR     36  31  82 NE3       30.19R
HILLSDALE      CLOUDY    36  28  75 CALM      30.16S
HOWELL         CLOUDY    37  29  73 CALM      30.19R

CITY           SKY/WX    TMP DP  RH WIND       PRES   REMARKS
JACKSON        CLOUDY    36  28  73 E3        30.17R
LAMBERTVILLE   PTCLDY    42  36  78 CALM      30.19R
LANSING        PTCLDY    34  28  79 CALM      30.19R
LAPEER         FAIR      31  30  96 S5        30.20S WCI  26
MASON          CLOUDY    35  31  88 CALM      30.19R
MONROE         PTCLDY    38  33  82 CALM      30.18S
MT. CLEMENS    CLOUDY    31  29  92 NW3       30.19R
PONTIAC        CLOUDY    33  27  78 CALM      30.18S
PORT HOPE        N/A     30  28  92 CALM      30.20R
PORT HURON     CLEAR     27  27 100 CALM      30.21R
TRI CITIES     CLOUDY    36  30  79 E3        30.22R
MIDLAND        FAIR      32  28  83 CALM      30.22R
TROY           CLOUDY    38  28  67 CALM      30.22R
SAGINAW HB     CLOUDY    34  30  86 CALM      30.22R
$$
MIZ043>046-050>051-056>058-064>065-071>073-077>080-200800-
SOUTHWEST LOWER MICHIGAN

CITY           SKY/WX    TMP DP  RH WIND       PRES   REMARKS
BATTLE CREEK   CLOUDY    37  29  72 CALM      30.17R
BENTON HARBOR  PTCLDY    35  28  75 CALM      30.15S
BIG RAPIDS     PTCLDY    31  27  83 W3        30.18S
COLDWATER      CLOUDY    34  32  91 CALM      30.17R
FREMONT        FAIR      40  28  62 E5        30.16S
HOLLAND        CLOUDY    35  30  82 CALM      30.16S
GRAND RAPIDS   CLOUDY    33  27  78 E3        30.16S
IONIA          FAIR      36  29  75 NE7       30.17R WCI  30
KALAMAZOO      CLOUDY    36  25  64 CALM      30.17R
LUDINGTON      CLOUDY    34  30  85 E5        30.16S WCI  30
MARSHALL       PTCLDY    32  29  88 CALM      30.16S
MOUNT PLEASANT PTCLDY    32  28  86 CALM      30.21R
MUSKEGON       PTCLDY    36  29  75 CALM      30.16S
SOUTH HAVEN    MOCLDY    34  29  83 CALM      30.15S
$$
MIZ016>042-200800-
NORTHERN LOWER MICHIGAN

CITY           SKY/WX    TMP DP  RH WIND       PRES   REMARKS
ALPENA         CLEAR     27  25  92 CALM      30.24R
BEAVER ISLAND  PTCLDY    35  31  87 E7        30.20S WCI  29
BELLAIRE       CLOUDY    28  28  96 CALM      30.20F
CADILLAC       CLOUDY    31  26  84 NE3       30.17S
CHARLEVOIX     PTCLDY    32  29  90 E7        30.22F WCI  26
FRANKFORT      PTCLDY    39  31  71 E5        30.17S
GAYLORD        PTCLDY    29  24  82 CALM      30.19R
GRAYLING       CLOUDY    28  25  90 CALM      30.21S
HARBOR SPRINGS PTCLDY    29  28  96 NE5       30.21S WCI  24
HOUGHTON LAKE  PTCLDY    28  25  88 E3        30.21R
MANISTEE       CLOUDY    33  29  85 E7        30.17R WCI  27
OSCODA         PTCLDY    26  23  87 SW6       30.22R WCI  19
PELLSTON       PTCLDY    26  22  84 CALM      30.23R
ROGERS CITY    CLEAR     28  26  90 CALM      30.24R
TRAVERSE CITY  CLOUDY    31  28  89 CALM      30.19S
$$
MIZ007>008-015-200800-
EASTERN UPPER MICHIGAN

CITY           SKY/WX    TMP DP  RH WIND       PRES   REMARKS
KINROSS        MOCLDY    30  28  92 E8        30.22R WCI  22
MACKINAC ISLAN PTCLDY    32  28  85 E8        30.22S WCI  25
NEWBERRY       CLOUDY    29  28  97 CALM      30.21R
S. S. MARIE    PTCLDY    30  26  85 E5        30.23R WCI  25
MUNISING         N/A     34  29  82 VRB3      30.18R
$$
MIZ004>006-011>014-085-200800-
CENTRAL UPPER MICHIGAN

CITY           SKY/WX    TMP DP  RH WIND       PRES   REMARKS
MANISTIQUE     PTCLDY    32  31  94 E5        30.20R WCI  28
ESCANABA       CLOUDY    27  26  96 CALM      30.18R
MENOMINEE      CLOUDY    29  27  92 CALM      30.17S
SAWYER-GWINN   CLOUDY    33  28  81 S5        30.15S WCI  29
$$
MIZ001>003-009>011-084-200800-
WESTERN UPPER MICHIGAN

CITY           SKY/WX    TMP DP  RH WIND       PRES   REMARKS
IRON MOUNTAIN  CLOUDY    33  27  78 SE3       30.13S
HOUGHTON       CLOUDY    34  29  82 E9        30.10S WCI  27
COPPER HARBOR    N/A     36  31  82 SW9G17    30.12F WCI  29
IRONWOOD       CLOUDY    46  31  55 SE9G20    30.01S
$$

ABBREVIATIONS USED IN REMARKS
   TC - TEMPERATURE IN CELSIUS
  WCI - WIND CHILL INDEX
   HX - HEAT INDEX
  VSB - VISIBILITY




USA.gov is the U.S. government's official web portal to all federal, state and local government web resources and services.